Location: Ciula Mare
(45.6000°N, 22.8167°E)
Time: 19:03:46
(UTC+00:00)

Envisat - Visible Passes

Search period start: 08 June 2023 00:00
Search period end: 18 June 2023 00:00
Orbit: 763 x 765 km, 98.2° (Epoch: 08 June)

Date Brightness Start Highest point End Pass type
(mag) Time Alt. Az. Time Alt. Az. Time Alt. Az.
08 Jun 5.5 01:03:51 10° NE 01:06:43 15° E 01:09:34 10° ESE visible
10 Jun 5.0 01:27:32 10° NE 01:31:42 25° E 01:35:50 10° SSE visible
11 Jun 5.7 00:52:31 10° ENE 00:54:06 11° E 00:55:42 10° ESE visible
12 Jun 4.2 01:51:47 10° NNE 01:56:36 41° E 02:01:21 10° SSE visible
13 Jun 5.3 01:15:29 10° NE 01:19:09 20° E 01:22:46 10° SE visible
15 Jun 4.6 01:39:31 10° NNE 01:44:04 32° E 01:48:35 10° SSE visible
16 Jun 5.5 01:03:38 10° NE 01:06:33 15° E 01:09:27 10° SE visible
